User: anonymous   Login
Location: Unspecified
(0.0000°N, 0.0000°E)
Time: 22:35:18
(UTC+00:00)
Language:

Explorer 11/Cluster Stage 4 - Orbit

View from above orbital plane
View from above orbital plane
View from above satellite
View from above satellite

Ground track
Ground track

The orbit data is extracted from the following two-line orbital elements,

1 00107U 61013A   21300.30730479  .00001692  00000-0  20843-3 0  9996
2 00107  28.7897 254.6264 0544888 325.0178  31.5721 14.09353592 36372
Epoch (UTC): 27 October 2021 07:22:31
Eccentricity: 0.0544888
inclination: 28.7897°
perigee height: 467 km
apogee height: 1256 km
right ascension of ascending node: 254.6264°
argument of perigee: 325.0178°
revolutions per day: 14.09353592
mean anomaly at epoch: 31.5721°
orbit number at epoch: 3637

The dashed part of the orbit path shows where the satellite is in the earth's shadow,  

DLR